KCMHKLOM

Guest
Details From KCMH - PORT COLUMBUS INTL
To KLOM - Wings Field
Flight Number -
Tags generated
Created
Modified
Stats Distance 352 nm / 651 km
Max Altitude 35,000 ft / 10,668 m
Waypoints 6
Social Downloads 0
Likes 0
Share VATSIM

Download

Looking for another format? Having issues loading an existing format? Contact us
Advertisement - Login to hide

Notes

Basic altitude profile: - Ascent Rate: 2500ft/min - Ascent Speed: 250kts - Cruise Altitude: 35000ft - Cruise Speed: 420kts - Descent Rate: 1500ft/min - Descent Speed: 250kts Options: - Use NATs: yes - Use PACOTS: yes - Use low airways: yes - Use high airways: yes

Route

KCMH AIR J110 LARRI KLOM

ID Type Via Altitude Latitude Longitude Leg Dist Tot Dist Heading (true) Name
O KCMH APT - 0 ft / 0 m 39.99847˚ -82.89216˚ - 0 nm - PORT COLUMBUS INTL
AIR VOR - 33,000 ft / 10,058 m 40.01703˚ -80.81722˚ 95 nm 95 nm 89° / 90° BELLAIRE VOR-DME
LEJOY FIX J110 (AWY-HI) 35,000 ft / 10,668 m 40.00339˚ -79.41489˚ 64 nm 159 nm 90° / 91° -
VINSE FIX J110 (AWY-HI) 25,600 ft / 7,803 m 39.97117˚ -77.95589˚ 67 nm 227 nm 91° / 92° -
LARRI FIX J110 (AWY-HI) 25,000 ft / 7,620 m 39.95065˚ -77.29837˚ 30 nm 257 nm 92° / 93° -
O KLOM APT - 0 ft / 0 m 40.13756˚ -75.26513˚ 94 nm 351 nm 82° / 84° Wings Field

Altitude Profile

Advertisement - Login to hide

Weather


0- 5 10 15 20 25 30 35+ Temperature / ° C

Clouds and Precipitation
Forecast for 2018-05-27 18:00 UTC. Updated 5 hours ago

Ground ~20,000 ft ~40,000 ft Winds

KCMH

Details ICAO KCMH (CMH)
Name PORT COLUMBUS INTL
Region United States
Timezone America/New_York (UTC-4.0)
Stats Elevation 815 ft / 248 m (AMSL)
Location 39.998474° -82.892158°
Runways 2
Magnetic Variation 7.215° W

METAR

KCMH 272051Z 02004KT 10SM SCT055 32/19 A2989 RMK AO2 SLP115 T03170189 57009 $

Decode

TAF

KCMH 271730Z 2718/2818 VRB04KT P6SM SCT050 BKN250 FM280000 00000KT P6SM SCT250 FM281000 00000KT 3SM BR SCT250 FM281300 07004KT P6SM BKN250

Decode

Departure Runways

ID Width Length Bearing (true) Bearing (mag) Surface Threshold Offset Overrun Length
10L 150 ft / 46 m 7,983 ft / 2,433 m 94.21° 101.42° Asphalt 0 ft / 0 m 200 ft / 61 m
10R 150 ft / 46 m 10,103 ft / 3,080 m 94.21° 101.42° Asphalt 0 ft / 0 m 500 ft / 152 m
28L 150 ft / 46 m 10,103 ft / 3,080 m 274.23° 281.44° Asphalt 0 ft / 0 m 200 ft / 61 m
28R 150 ft / 46 m 7,983 ft / 2,433 m 274.23° 281.44° Asphalt 0 ft / 0 m 200 ft / 61 m

KLOM

Details ICAO KLOM (BBX)
Name Wings Field
Region United States
Timezone America/New_York (UTC-4.0)
Stats Elevation 301 ft / 92 m (AMSL)
Location 40.137564° -75.265131°
Runways 1
Magnetic Variation 12.100° W

METAR

KLOM 272135Z AUTO 08006KT 4SM OVC008 16/16 A3002 RMK AO1

Decode

TAF

Not found

Destination Runways

ID Width Length Bearing (true) Bearing (mag) Surface Threshold Offset Overrun Length
06 75 ft / 23 m 3,703 ft / 1,129 m 53.00° 65.10° Asphalt 177 ft / 54 m 102 ft / 31 m
24 75 ft / 23 m 3,703 ft / 1,129 m 233.01° 245.11° Asphalt 0 ft / 0 m 0 ft / 0 m